TimeCDT,TemperatureF,Dew PointF,Humidity,Sea Level PressureIn,VisibilityMPH,Wind Direction,Wind SpeedMPH,Gust SpeedMPH,PrecipitationIn,Events,Conditions,WindDirDegrees,DateUTC
12:11 AM,55.4,51.8,88,29.93,0.2,NE,4.6,-,N/A,,Haze,40,2013-06-23 05:11:00
12:32 AM,55.4,51.8,88,29.92,0.2,NE,4.6,-,N/A,,Haze,50,2013-06-23 05:32:00
12:51 AM,57.2,51.8,82,29.92,0.2,NE,4.6,-,N/A,,Haze,50,2013-06-23 05:51:00
1:11 AM,55.4,51.8,88,29.91,0.2,ENE,5.8,-,N/A,,Haze,60,2013-06-23 06:11:00
1:32 AM,55.4,51.8,88,29.88,0.2,NE,6.9,-,N/A,,Overcast,50,2013-06-23 06:32:00
1:51 AM,55.4,51.8,88,29.87,0.2,ENE,8.1,-,N/A,,Overcast,60,2013-06-23 06:51:00
2:11 AM,55.4,51.8,88,29.86,0.2,NE,6.9,-,N/A,,Overcast,50,2013-06-23 07:11:00
2:32 AM,55.4,51.8,88,29.86,0.2,NE,6.9,-,N/A,,Overcast,50,2013-06-23 07:32:00
2:51 AM,55.4,51.8,88,29.88,0.5,ENE,5.8,-,N/A,,Overcast,60,2013-06-23 07:51:00
3:11 AM,55.4,51.8,88,29.88,0.2,ENE,9.2,-,N/A,,Overcast,70,2013-06-23 08:11:00
3:32 AM,55.4,51.8,88,29.87,0.2,NE,5.8,-,N/A,,Overcast,40,2013-06-23 08:32:00
3:51 AM,55.4,51.8,88,29.85,0.5,ENE,9.2,-,N/A,,Overcast,60,2013-06-23 08:51:00
4:11 AM,55.4,51.8,88,29.84,0.5,NE,5.8,-,N/A,,Overcast,50,2013-06-23 09:11:00
4:32 AM,55.4,51.8,88,29.83,0.8,NE,6.9,-,N/A,,Overcast,50,2013-06-23 09:32:00
4:51 AM,55.4,51.8,88,29.82,1.2,NE,6.9,-,N/A,,Overcast,50,2013-06-23 09:51:00
5:11 AM,55.4,51.8,88,29.83,1.8,ENE,8.1,-,N/A,,Overcast,60,2013-06-23 10:11:00
5:32 AM,55.4,51.8,88,29.83,2.0,ENE,6.9,-,N/A,,Overcast,60,2013-06-23 10:32:00
5:51 AM,55.4,51.8,88,29.84,4.0,ENE,6.9,-,N/A,,Overcast,70,2013-06-23 10:51:00
6:11 AM,55.4,50.0,82,29.81,2.5,NE,6.9,-,N/A,,Overcast,40,2013-06-23 11:11:00
6:32 AM,55.4,51.8,88,29.80,1.5,NE,5.8,-,N/A,,Overcast,40,2013-06-23 11:32:00
6:51 AM,55.4,51.8,88,29.80,1.5,NE,4.6,-,N/A,,Overcast,50,2013-06-23 11:51:00
7:11 AM,55.4,51.8,88,29.82,2.0,NE,5.8,-,N/A,Thunderstorm,Overcast,40,2013-06-23 12:11:00
7:31 AM,55.4,51.8,88,29.82,1.2,ENE,8.1,-,N/A,Thunderstorm,Overcast,60,2013-06-23 12:31:00
7:52 AM,55.4,51.8,88,29.82,1.8,NE,4.6,-,0.04,Thunderstorm,Overcast,50,2013-06-23 12:52:00
8:11 AM,57.2,51.8,82,29.81,2.0,NNE,5.8,-,0.02,Thunderstorm,Thunderstorm,30,2013-06-23 13:11:00
8:31 AM,57.2,53.6,88,29.80,3.0,NE,6.9,-,0.07,,Overcast,40,2013-06-23 13:31:00
8:51 AM,57.2,53.6,88,29.78,3.0,ENE,11.5,-,0.11,,Overcast,60,2013-06-23 13:51:00
9:11 AM,57.2,53.6,88,29.74,4.0,NE,10.4,-,0.02,Thunderstorm,Overcast,40,2013-06-23 14:11:00
9:31 AM,57.2,53.6,88,29.69,5.0,NE,9.2,-,0.03,,Overcast,40,2013-06-23 14:31:00
9:51 AM,59.0,53.6,82,29.71,4.0,ENE,9.2,-,0.03,,Overcast,70,2013-06-23 14:51:00
10:11 AM,57.2,53.6,88,29.76,0.8,SE,4.6,-,N/A,,Overcast,140,2013-06-23 15:11:00
10:31 AM,55.4,51.8,88,29.75,0.2,NE,10.4,-,N/A,,Overcast,50,2013-06-23 15:31:00
10:51 AM,57.2,51.8,82,29.74,0.5,NE,6.9,-,N/A,,Overcast,50,2013-06-23 15:51:00
11:11 AM,57.2,53.6,88,29.73,0.8,NE,5.8,-,N/A,,Overcast,40,2013-06-23 16:11:00
11:31 AM,60.8,55.4,82,29.74,7.0,NE,4.6,-,N/A,,Overcast,50,2013-06-23 16:31:00
11:51 AM,60.8,55.4,82,29.74,7.0,ENE,6.9,-,N/A,,Overcast,60,2013-06-23 16:51:00
12:11 PM,60.8,55.4,82,29.73,10.0,ENE,6.9,-,N/A,,Overcast,70,2013-06-23 17:11:00
12:31 PM,62.6,57.2,82,29.73,10.0,ENE,9.2,-,N/A,,Overcast,70,2013-06-23 17:31:00
12:51 PM,64.4,59.0,83,29.72,10.0,ENE,6.9,-,N/A,,Overcast,60,2013-06-23 17:51:00
1:11 PM,64.4,60.8,88,29.72,10.0,East,5.8,-,N/A,,Overcast,80,2013-06-23 18:11:00
1:31 PM,62.6,57.2,82,29.73,10.0,East,4.6,-,N/A,,Overcast,100,2013-06-23 18:31:00
1:51 PM,62.6,57.2,82,29.73,7.0,ENE,5.8,-,N/A,,Overcast,70,2013-06-23 18:51:00
2:11 PM,62.6,57.2,82,29.73,7.0,East,3.5,-,N/A,,Overcast,80,2013-06-23 19:11:00
2:31 PM,62.6,57.2,82,29.74,7.0,ENE,3.5,-,N/A,,Overcast,70,2013-06-23 19:31:00
2:51 PM,64.4,60.8,88,29.73,10.0,ENE,3.5,-,N/A,,Mostly Cloudy,70,2013-06-23 19:51:00
3:11 PM,66.2,60.8,83,29.72,10.0,Calm,Calm,-,N/A,,Mostly Cloudy,0,2013-06-23 20:11:00
3:31 PM,69.8,62.6,78,29.73,10.0,South,4.6,-,N/A,,Scattered Clouds,180,2013-06-23 20:31:00
3:52 PM,68.0,60.8,78,29.73,10.0,SSE,5.8,-,N/A,,Clear,160,2013-06-23 20:52:00
4:11 PM,68.0,60.8,78,29.72,10.0,SSE,4.6,-,N/A,,Clear,150,2013-06-23 21:11:00
4:31 PM,69.8,60.8,73,29.73,10.0,SE,5.8,-,N/A,,Clear,130,2013-06-23 21:31:00
4:52 PM,68.0,60.8,78,29.73,10.0,SE,5.8,-,N/A,,Clear,130,2013-06-23 21:52:00
5:11 PM,66.2,57.2,73,29.73,10.0,SSE,5.8,-,N/A,,Clear,150,2013-06-23 22:11:00
5:31 PM,64.4,57.2,77,29.72,10.0,Calm,Calm,-,N/A,,Clear,0,2013-06-23 22:31:00
5:52 PM,66.2,57.2,73,29.72,10.0,Calm,Calm,-,N/A,,Clear,0,2013-06-23 22:52:00
6:11 PM,66.2,57.2,73,29.72,10.0,Calm,Calm,-,N/A,,Clear,0,2013-06-23 23:11:00
6:31 PM,66.2,59.0,78,29.72,10.0,South,3.5,-,N/A,,Clear,170,2013-06-23 23:31:00
6:52 PM,66.2,59.0,78,29.73,10.0,South,4.6,-,N/A,,Clear,170,2013-06-23 23:52:00
7:11 PM,66.2,59.0,78,29.74,10.0,South,4.6,-,N/A,,Clear,190,2013-06-24 00:11:00
7:31 PM,66.2,59.0,78,29.75,10.0,South,3.5,-,N/A,,Clear,190,2013-06-24 00:31:00
7:52 PM,64.4,57.2,77,29.75,10.0,South,3.5,-,N/A,,Clear,180,2013-06-24 00:52:00
8:11 PM,62.6,57.2,82,29.77,10.0,South,3.5,-,N/A,,Clear,180,2013-06-24 01:11:00
8:31 PM,62.6,55.4,77,29.77,4.0,Calm,Calm,-,N/A,,Haze,0,2013-06-24 01:31:00
8:52 PM,60.8,55.4,82,29.78,7.0,Calm,Calm,-,N/A,,Clear,0,2013-06-24 01:52:00
9:11 PM,59.0,53.6,82,29.78,7.0,Calm,Calm,-,N/A,,Clear,0,2013-06-24 02:11:00
9:31 PM,57.2,53.6,88,29.79,10.0,Calm,Calm,-,N/A,,Clear,0,2013-06-24 02:31:00
9:52 PM,57.2,53.6,88,29.80,7.0,Calm,Calm,-,N/A,,Clear,0,2013-06-24 02:52:00
10:11 PM,57.2,51.8,82,29.80,7.0,Calm,Calm,-,N/A,,Clear,0,2013-06-24 03:11:00
10:31 PM,57.2,51.8,82,29.80,7.0,West,3.5,-,N/A,,Clear,260,2013-06-24 03:31:00
10:52 PM,55.4,51.8,88,29.81,10.0,Calm,Calm,-,N/A,,Clear,0,2013-06-24 03:52:00
11:11 PM,55.4,51.8,88,29.81,10.0,Calm,Calm,-,N/A,,Clear,0,2013-06-24 04:11:00
11:31 PM,55.4,51.8,88,29.81,4.0,Calm,Calm,-,N/A,,Haze,0,2013-06-24 04:31:00
11:51 PM,55.4,50.0,82,29.81,4.0,WSW,4.6,-,N/A,,Clear,250,2013-06-24 04:51:00